Location: Unspecified
(47.9110°N, 14.3980°E)
Time: 05:39:25
(UTC+00:00)

GP-B - Pass Details

Date: 06 August 2020
Orbit: 632 x 635 km, 89.8° (Epoch: 19 September)

Event Time Altitude Azimuth Distance (km) Brightness Sun altitude
Rises 20:37:36 0° 358° (N) 2,946 7.4 -17.4°
Reaches altitude 10° 20:39:50 10° 355° (N) 2,032 6.6 -17.7°
Maximum altitude 20:44:15 63° 276° (W) 713 3.5 -18.1°
Enters shadow 20:47:08 21° 200° (SSW) 1,430 4.6 -18.4°
